{"data":{"norad_id":43530,"epoch":"2026-05-25T03:58:49.643904Z","epoch_age_seconds":60399,"freshness":"FRESH","line1":"1 43530U 18056B   26145.16585236  .00000880  00000+0  11749-3 0  9999","line2":"2 43530  97.7824 213.6725 0001849  87.9483 272.1942 14.81947020425027","mean_motion":14.8194702,"eccentricity":0.0001849,"inclination_deg":97.7824,"raan_deg":213.6725,"arg_perigee_deg":87.9483,"mean_anomaly_deg":272.1942,"bstar":0.00011749,"rev_number":42502,"period_min":97.16946561288,"perigee_km":621.89052410616,"apogee_km":624.47961300711,"semimajor_km":7001.3220685566,"source":"CELESTRAK","updated_at":"2026-05-25T13:37:55.833695Z"}}